[[{"header":{"parameterUnit":"m.s-1","parameterCategory":1,"la1":30.2991,"la2":30.254,"lo1":-89.0895,"lo2":-89.0444,"dy":0.0017,"dx":0.0017,"nx":28,"ny":28,"refTime":"2025-07-03T21:00:00:Z","depth":0,"parameterNumber":2,"parameterNumberName":"U-component_of_WINDS"},"data":[0,0,0,0,0,0,0,0,0,0,0,0,0,0,0,0,0,0,0,0,0,0,0,0,0,0,0,0,0,0,0,0,0,0,0,0,0,0,0,0,0,0,0,0,0,0,0,0,0,0,0,0,0,0,0,0,0,0,0.59,0.5902,0,0.608,0.6082,0.6084,0.6137,0.6136,0.6135,0.6134,0.6321,0.6327,0.6333,0,0,0,0,0,0,0,0,0,0,0,0,0,0.5605,0.561,0.59,0.5902,0.5904,0.608,0.6082,0.6085,0.6137,0.6136,0.6135,0.6134,0.6319,0.6326,0.6333,0,0,0,0,0,0,0,0,0,0,0,0,0,0.5754,0.5612,0.5899,0.5951,0.5958,0.6079,0.6082,0.6085,0.6137,0.6136,0.6134,0.6133,0.6317,0.6325,0.6334,0.6417,0,0,0.6361,0.6365,0,0,0,0,0,0,0,0,0.5745,0.5765,0.5942,0.5948,0.5956,0.6084,0.6047,0.6197,0.6138,0.6069,0.6134,0.6132,0.6244,0.6258,0.6295,0.6426,0.6434,0.6362,0.6367,0.6371,0.6373,0,0,0,0,0,0,0,0.5735,0.5757,0.5971,0.5944,0.5953,0.5967,0.5987,0.6075,0.6162,0.6075,0.6079,0.61,0.6247,0.6287,0.63,0.6437,0.6361,0.6369,0.6375,0.6378,0.6647,0.6649,0,0,0,0,0,0,0.5715,0.5748,0.5965,0.5977,0.5845,0.5974,0.5995,0.6045,0.6162,0.6178,0.6101,0.6102,0.6272,0.629,0.6307,0.6414,0.6371,0.6379,0.6384,0.6645,0.6648,0.665,0,0,0,0,0,0,0.5709,0.5734,0.5958,0.5864,0.5893,0.598,0.6035,0.6049,0.6088,0.6181,0.6197,0.6125,0.6272,0.6295,0.639,0.6421,0.6383,0.6391,0.6643,0.6646,0.6649,0.6626,0,0,0,0,0,0,0.57,0.5732,0.5763,0.5864,0.5898,0.6037,0.6037,0.6053,0.6103,0.6106,0.6208,0.6223,0.6273,0.6376,0.6398,0.6432,0.6398,0.6641,0.6645,0.6648,0.6625,0.6628,0.6631,0,0,0,0,0,0.5689,0.5749,0.5764,0.579,0.5939,0.6038,0.6058,0.6112,0.6105,0.6139,0.6198,0.622,0.6414,0.6386,0.6411,0.6448,0.6639,0.6643,0.6648,0.6623,0.6627,0.6631,0,0,0,0,0,0,0.565,0.5763,0.5781,0.5875,0.5947,0.6047,0.609,0.6115,0.619,0.6189,0.6255,0.6277,0.6368,0.6418,0.6384,0.6536,0.6527,0.6537,0.65,0.6505,0.6508,0.6494,0.6405,0,0,0,0,0,0.5652,0.5722,0.5818,0.5892,0.5927,0.6002,0.6048,0.6083,0.616,0.6191,0.6258,0.6332,0.641,0.646,0.6537,0.6632,0.6656,0.667,0.6673,0.6675,0.6683,0.6739,0.6747,0.6664,0.6663,0.6663,0,0,0.5658,0.5728,0.5769,0.5886,0.5946,0.6018,0.6027,0.6103,0.6158,0.6203,0.6297,0.6349,0.6437,0.6533,0.6578,0.6577,0.6711,0.6681,0.6681,0.6688,0.6744,0.6752,0.6759,0.6666,0.6666,0.6665,0,0,0.5705,0.5764,0.5833,0.5893,0.5983,0.6033,0.605,0.6147,0.6183,0.6278,0.6314,0.6381,0.6513,0.6575,0.6624,0.6696,0.672,0.672,0.6736,0.679,0.6796,0.6802,0.683,0.6839,0.6727,0.6727,0.6727,0,0.57,0.581,0.5866,0.5941,0.5992,0.6036,0.6107,0.6163,0.6273,0.6309,0.6305,0.6473,0.6535,0.6648,0.6665,0.6703,0.6725,0.6708,0.679,0.6797,0.6804,0.6831,0.6841,0.6726,0.6726,0.6726,0.6726,0,0.58,0.5876,0.5921,0.6027,0.6084,0.6156,0.6225,0.6276,0.6308,0.6358,0.6456,0.6533,0.6626,0.6656,0.6687,0.6773,0.677,0.6777,0.677,0.681,0.6837,0.6847,0.6725,0.6725,0.6726,0.6726,0,0,0.5827,0.5964,0.5979,0.6029,0.6132,0.6192,0.6268,0.6359,0.6402,0.6478,0.6544,0.6656,0.6664,0.672,0.6759,0.6806,0.6861,0.6809,0.6812,0.6817,0.6963,0.6956,0.6967,0.6877,0.6879,0.6881,0.6956,0,0.5887,0.6023,0.6077,0.6188,0.626,0.6303,0.637,0.6441,0.6491,0.6561,0.6617,0.6695,0.67,0.6734,0.6782,0.6844,0.6891,0.6839,0.6941,0.6944,0.6918,0.6981,0.6974,0.7041,0.6966,0.6968,0.6969,0,0.5976,0.6052,0.617,0.6266,0.6299,0.6357,0.6446,0.6511,0.6594,0.6628,0.669,0.6727,0.681,0.6797,0.6914,0.6877,0.6922,0.6959,0.6963,0.6975,0.6959,0.6995,0.7063,0.7073,0.6986,0.6984,0.6983,0,0.5985,0.6117,0.6205,0.6246,0.636,0.64,0.645,0.6532,0.6584,0.6662,0.6697,0.6784,0.6832,0.6899,0.696,0.6945,0.7071,0.7063,0.7103,0.7101,0.7127,0.7125,0.7204,0.7155,0.7155,0.7155,0.7154,0,0.6047,0.6118,0.621,0.6265,0.6346,0.6408,0.6487,0.654,0.6613,0.668,0.6723,0.6785,0.686,0.6932,0.698,0.707,0.7091,0.7122,0.7134,0.7118,0.7115,0.7149,0.7146,0.7157,0.7157,0.7156,0.7156,0,0.607,0.6135,0.6234,0.6335,0.6362,0.6417,0.6504,0.656,0.6612,0.6696,0.672,0.6803,0.689,0.6957,0.707,0.7103,0.7199,0.7211,0.717,0.7177,0.7213,0.7209,0.7317,0.7335,0.7273,0.7273,0.7274,0,0.6106,0.6162,0.6268,0.6316,0.6365,0.6441,0.6495,0.6559,0.6613,0.6713,0.6757,0.6847,0.6923,0.7061,0.7132,0.722,0.7235,0.7267,0.7249,0.7232,0.7237,0.7234,0.724,0.727,0.727,0.727,0.727,0,0.6163,0.6193,0.6268,0.6355,0.6418,0.6489,0.6562,0.6599,0.6677,0.6736,0.6825,0.6884,0.7001,0.709,0.7186,0.7239,0.7269,0.7276,0.729,0.7275,0.7249,0.7265,0.7178,0.7273,0.7273,0.7273,0.7272,0.7272,0.6195,0.6247,0.6331,0.6414,0.6475,0.6542,0.66,0.666,0.6736,0.6835,0.6869,0.6962,0.7046,0.7177,0.7231,0.7306,0.7307,0.7326,0.7332,0.7336,0.7335,0.7237,0.7323,0.7323,0.7323,0.7323,0.7323,0,0.6255,0.6312,0.6387,0.6488,0.6553,0.6575,0.6657,0.6711,0.6792,0.6867,0.6941,0.7046,0.7133,0.7212,0.7304,0.7349,0.7365,0.7371,0.7369,0.7381,0.7328,0.7308,0.7357,0.7357,0.7357,0.7357,0.7357,0.7357,0.6294,0.6384,0.6424,0.6546,0.6602,0.6693,0.6738,0.6802,0.6862,0.6976,0.7049,0.71,0.7178,0.7276,0.7359,0.738,0.7412,0.7415,0.744,0.7389,0.7385,0.7381,0.7361,0.7421,0.7421,0.7487,0.7487,0.7488]},{"header":{"parameterUnit":"m.s-1","parameterCategory":1,"la1":30.2991,"la2":30.254,"lo1":-89.0895,"lo2":-89.0444,"dy":0.0017,"dx":0.0017,"nx":28,"ny":28,"refTime":"2025-07-03T21:00:00:Z","depth":0,"parameterNumber":3,"parameterNumberName":"V-component_of_WINDS"},"data":[0,0,0,0,0,0,0,0,0,0,0,0,0,0,0,0,0,0,0,0,0,0,0,0,0,0,0,0,0,0,0,0,0,0,0,0,0,0,0,0,0,0,0,0,0,0,0,0,0,0,0,0,0,0,0,0,0,0,-0.0993,-0.0994,0,-0.1076,-0.1077,-0.1078,-0.1173,-0.1174,-0.1176,-0.1177,-0.1264,-0.1265,-0.1266,0,0,0,0,0,0,0,0,0,0,0,0,0,-0.092,-0.0921,-0.0993,-0.0994,-0.0995,-0.1076,-0.1077,-0.1078,-0.1173,-0.1174,-0.1176,-0.1178,-0.1264,-0.1265,-0.1266,0,0,0,0,0,0,0,0,0,0,0,0,0,-0.0972,-0.0921,-0.0993,-0.1052,-0.1058,-0.1075,-0.1077,-0.1078,-0.1172,-0.1175,-0.1177,-0.1179,-0.1263,-0.1265,-0.1266,-0.1232,0,0,-0.1271,-0.1271,0,0,0,0,0,0,0,0,-0.0969,-0.0975,-0.1042,-0.1048,-0.1055,-0.1116,-0.1083,-0.113,-0.1172,-0.1129,-0.1177,-0.118,-0.1213,-0.1219,-0.123,-0.1237,-0.124,-0.1271,-0.1272,-0.1272,-0.1273,0,0,0,0,0,0,0,-0.0965,-0.0972,-0.1026,-0.1043,-0.1051,-0.1075,-0.1085,-0.1092,-0.1158,-0.1133,-0.114,-0.1148,-0.1217,-0.1228,-0.1233,-0.1242,-0.1271,-0.1272,-0.1273,-0.1274,-0.1226,-0.1224,0,0,0,0,0,0,-0.0952,-0.0968,-0.1023,-0.1028,-0.1016,-0.1075,-0.1086,-0.1094,-0.1158,-0.117,-0.1147,-0.1153,-0.1225,-0.1231,-0.1236,-0.1201,-0.1272,-0.1274,-0.1275,-0.1228,-0.1225,-0.1223,0,0,0,0,0,0,-0.095,-0.0956,-0.102,-0.1,-0.101,-0.1074,-0.1083,-0.1095,-0.1106,-0.1169,-0.1181,-0.1145,-0.1227,-0.1234,-0.1233,-0.1205,-0.1274,-0.1276,-0.1231,-0.1227,-0.1224,-0.113,0,0,0,0,0,0,-0.0948,-0.0955,-0.0942,-0.0999,-0.1011,-0.1014,-0.1081,-0.1095,-0.1108,-0.1117,-0.1171,-0.1182,-0.1229,-0.123,-0.1234,-0.1209,-0.1277,-0.1233,-0.1229,-0.1225,-0.1136,-0.1124,-0.1114,0,0,0,0,0,-0.0945,-0.0913,-0.0941,-0.0947,-0.0996,-0.1012,-0.1019,-0.1073,-0.1105,-0.1094,-0.1134,-0.118,-0.1208,-0.1229,-0.1235,-0.1209,-0.1235,-0.123,-0.1226,-0.1141,-0.1126,-0.1114,0,0,0,0,0,0,-0.0851,-0.0921,-0.0953,-0.0938,-0.0968,-0.1028,-0.1015,-0.1056,-0.1078,-0.1085,-0.1152,-0.1163,-0.1154,-0.1182,-0.1204,-0.118,-0.1228,-0.1224,-0.1162,-0.1149,-0.1138,-0.1131,-0.1278,0,0,0,0,0,-0.0829,-0.0835,-0.0897,-0.0878,-0.0891,-0.095,-0.0959,-0.0998,-0.1032,-0.1046,-0.1086,-0.1118,-0.1134,-0.1144,-0.1162,-0.1141,-0.1155,-0.1126,-0.1115,-0.1106,-0.1102,-0.1093,-0.1082,-0.1207,-0.1207,-0.1207,0,0,-0.0782,-0.0822,-0.0822,-0.086,-0.0888,-0.0894,-0.096,-0.0964,-0.0969,-0.1047,-0.1047,-0.1078,-0.1119,-0.1108,-0.1105,-0.1131,-0.107,-0.11,-0.1092,-0.1093,-0.1087,-0.1075,-0.1064,-0.1204,-0.1205,-0.1205,0,0,-0.0701,-0.0731,-0.0719,-0.0745,-0.0787,-0.0826,-0.0823,-0.0877,-0.09,-0.0902,-0.0961,-0.0969,-0.0995,-0.1022,-0.1038,-0.0968,-0.1012,-0.0972,-0.0914,-0.0906,-0.0896,-0.0887,-0.0862,-0.0852,-0.0968,-0.0968,-0.0968,0,-0.0638,-0.0649,-0.0707,-0.0707,-0.0722,-0.0793,-0.0781,-0.0804,-0.085,-0.0859,-0.0887,-0.0922,-0.0954,-0.095,-0.0933,-0.0945,-0.0944,-0.0966,-0.0892,-0.0884,-0.0877,-0.0854,-0.0844,-0.0963,-0.0963,-0.0964,-0.0964,0,-0.057,-0.0576,-0.0562,-0.0603,-0.0617,-0.0611,-0.0669,-0.0676,-0.0714,-0.0751,-0.0753,-0.0794,-0.0822,-0.0825,-0.0862,-0.0827,-0.0841,-0.088,-0.0929,-0.0859,-0.0838,-0.083,-0.0955,-0.0957,-0.0959,-0.096,0,0,-0.043,-0.0504,-0.0498,-0.0517,-0.0569,-0.0576,-0.0574,-0.0601,-0.0605,-0.0635,-0.0635,-0.0656,-0.0693,-0.0712,-0.0753,-0.0745,-0.0687,-0.0786,-0.0788,-0.0765,-0.0651,-0.062,-0.0609,-0.0717,-0.0716,-0.0714,-0.0647,0,-0.0357,-0.0356,-0.0409,-0.0394,-0.0402,-0.0469,-0.0468,-0.0499,-0.0534,-0.0546,-0.0586,-0.0599,-0.0646,-0.0658,-0.0654,-0.0695,-0.0665,-0.0701,-0.0718,-0.0718,-0.0704,-0.0598,-0.0566,-0.05,-0.0639,-0.0638,-0.0637,0,-0.0272,-0.0296,-0.0281,-0.0333,-0.0339,-0.0336,-0.0365,-0.0376,-0.0414,-0.044,-0.0461,-0.0509,-0.0512,-0.0559,-0.0564,-0.0587,-0.0598,-0.062,-0.0618,-0.0621,-0.0672,-0.0597,-0.0481,-0.047,-0.0625,-0.0626,-0.0627,0,-0.017,-0.0199,-0.0194,-0.0209,-0.0271,-0.0267,-0.0293,-0.0333,-0.0346,-0.0372,-0.0382,-0.0408,-0.0422,-0.0442,-0.0495,-0.0525,-0.0495,-0.0546,-0.0517,-0.0515,-0.0506,-0.0505,-0.0388,-0.0514,-0.0514,-0.0514,-0.0515,0,-0.0083,-0.0071,-0.015,-0.0146,-0.0136,-0.0197,-0.0185,-0.0218,-0.0253,-0.0258,-0.0319,-0.0323,-0.0394,-0.0406,-0.0448,-0.0446,-0.0453,-0.0474,-0.0485,-0.0468,-0.0465,-0.0475,-0.048,-0.0512,-0.0512,-0.0513,-0.0513,0,0.0033,-0.0019,-0.0018,-0.0077,-0.0091,-0.0081,-0.0131,-0.0131,-0.017,-0.0176,-0.0181,-0.0243,-0.026,-0.0316,-0.0347,-0.0376,-0.0361,-0.0383,-0.0347,-0.0354,-0.0321,-0.0323,-0.0205,-0.0193,-0.0327,-0.0325,-0.0324,0,0.0093,0.01,0.0043,0.0035,0.0013,0.0001,-0.0012,-0.0074,-0.0085,-0.0129,-0.0123,-0.0146,-0.0166,-0.0192,-0.024,-0.0265,-0.0287,-0.0244,-0.0291,-0.0274,-0.0286,-0.0285,-0.0284,-0.0233,-0.0231,-0.023,-0.0229,0,0.0205,0.0178,0.0162,0.0136,0.0122,0.0099,0.0071,0.0069,-0.0,-0.0011,-0.0029,-0.0045,-0.0077,-0.0098,-0.0131,-0.0159,-0.0205,-0.0214,-0.0208,-0.019,-0.0169,-0.0179,-0.0318,-0.0216,-0.0217,-0.0218,-0.0219,-0.0219,0.0294,0.0298,0.0258,0.0241,0.0215,0.0191,0.0188,0.0148,0.0132,0.0102,0.0066,0.0053,0.0012,-0.0036,-0.0061,-0.0073,-0.0098,-0.009,-0.0088,-0.0084,-0.0076,-0.0168,-0.008,-0.008,-0.0081,-0.0081,-0.0081,0,0.0404,0.0375,0.036,0.0324,0.0311,0.0269,0.0236,0.0228,0.0217,0.0184,0.0165,0.0143,0.0122,0.0072,0.0045,0.0045,0.0023,0.004,0.004,0.0034,-0.0052,-0.0054,0.0058,0.0058,0.0058,0.0058,0.0058,0.0058,0.0459,0.0463,0.0432,0.0422,0.0392,0.0379,0.0364,0.0341,0.0314,0.0294,0.0276,0.0244,0.0203,0.0173,0.0151,0.0137,0.013,0.0155,0.0134,0.0054,0.0041,0.0028,0.0026,0.0154,0.0154,0.0221,0.0222,0.0223]}]]